Weather in Kurya

Russia / Komi Republic     61°41′03″N   57°14′54″E
temp.,
°C
wind,
m/s
gust,
m/s
humid.,
%
clouds,
%
prec.,
mm/h
press.,
hPa
HPBL,
m
11 may, tue
tue1100:00+9nnw3692100 2.0 1024425
03:00+8nnw3591100 4.8 1026510
06:00+8nnw3483100 0.0 1027640
09:00+10nw246163 0.0 1028878
12:00+15wnw343190 0.0 10271384
15:00+15wnw352965 0.0 10271457
18:00+13nw2345100 0.0 1028102
21:00+11w1154100 0.0 102824
12 may, wed
wed1200:00+11wsw2661100 0.0 1028195
03:00+10sw2676100 0.0 1028180
06:00+12sw4117298 0.1 1028391
09:00+18wsw585267 0.1 1026902
12:00+21w6943100 0.0 10251802
15:00+22w594048 0.0 10252022
18:00+19w4951100 0.0 1025491
21:00+15wsw3126929 0.0 1025275
13 may, thu
thu1300:00+14w3117799 0.0 1025258
03:00+12wnw278592 0.0 1026151
06:00+15nnw127896 0.0 1027148
09:00+20nw235524 0.0 1027881
12:00+24w244312 0.0 10261936
15:00+25w34345 0.0 10252199
18:00+22sw23470 0.0 102461
21:00+17ssw35600 0.0 102477
14 may, fri
fri1400:00+15ssw39731 0.0 1023183
03:00+14ssw387689 0.0 1023167
06:00+18wsw375774 0.0 1022317
09:00+24sw464021 0.0 10201109
12:00+26wsw583163 0.0 10192776
15:00+18wsw51271100 0.3 1020679
18:00+19sw3106296 0.1 1018612
21:00+17sw3117040 0.3 1017313
15 may, sat
sat1500:00+15sw3107837 0.6 1016263
03:00+14sw2388100 0.6 101665
06:00+17sw377276 0.0 1016308
09:00+23wsw494489 0.0 10152043
12:00+25w6933100 0.0 10133067
15:00+23wnw41141100 0.0 10132518
18:00+20nw375443 0.0 1014534
21:00+15sw12705 0.0 101512